Hourly Data Report for December 29, 2020

L'ASSOMPTION
QUEBEC
Current Station Operator: ECCC - MSC

45°48'34.000" N
73°26'05.000" W
21.00 m
7014160
71524
WEW

Download Data

Hourly Data (December 2020)
Hourly Data Report for December 29, 2020
TIME
LST
Temp Definition
°C
Dew Point Definition
°C
Rel Hum Definition
%
Precip. Amount Definition
mm

Wind Dir Definition
10's deg

Wind Spd Definition
km/h
Visibility Definition
km
Stn Press Definition
kPa
Hmdx Definition


Wind Chill Definition


Weather Definition


00:00 -1.4 -7.3 64 0.0 27 18   101.50   -7 LegendNANA
01:00 -2.1 -7.0 69 0.0 27 15   101.56   -7 LegendNANA
02:00 -2.9 -9.0 62 0.0 29 19   101.71   -9 LegendNANA
03:00 -4.6 -10.4 64 0.0 31 13   101.81   -10 LegendNANA
04:00 -5.7 -10.8 67 0.2 28 10   101.95   -10 LegendNANA
05:00 -6.7 -11.6 68 0.0 27 13   102.08   -12 LegendNANA
06:00 -7.1 -12.2 67 0.0 29 14   102.21   -13 LegendNANA
07:00 -8.0 -12.7 69 0.0 28 10   102.32   -13 LegendNANA
08:00 -9.0 -13.0 73 0.0 28 6   102.46   -12 LegendNANA
09:00 -8.9 -13.4 70 0.0 29 11   102.59   -14 LegendNANA
10:00 -8.2 -14.8 59 0.0 29 16   102.69   -15 LegendNANA
11:00 -7.5 -14.8 56 0.0 29 12   102.71   -13 LegendNANA
12:00 -6.4 -14.6 52 0.2 29 15   102.70   -12 LegendNANA
13:00 -5.7 -14.9 48 0.0 26 10   102.70   -10 LegendNANA
14:00 -5.1 -15.4 44 0.0 26 15   102.71   -11 LegendNANA
15:00 -5.2 -15.5 44 0.0 26 18   102.79   -11 LegendNANA
16:00 -6.2 -15.5 48 0.0 25 16   102.84   -12 LegendNANA
17:00 -7.3 -14.4 57 0.0 23 14   102.87   -13 LegendNANA
18:00 -7.8 -15.2 55 0.0 24 12   102.86   -13 LegendNANA
19:00 -7.8 -14.6 58 0.0 24 12   102.84   -13 LegendNANA
20:00 -7.7 -14.9 56 0.0 26 19   102.87   -15 LegendNANA
21:00 -7.9 -14.4 60 0.0 25 19   102.91   -15 LegendNANA
22:00 -8.1 -14.5 60 0.0 23 15   102.90   -14 LegendNANA
23:00 -8.5 -14.2 64 0.0 22 12   102.89   -14 LegendNANA

Notes on Data Quality.

Legend

  • E = Estimated
  • M = Missing
  • NA = Not Available*
  • [empty] = Indicates an unobserved value
Date modified: